| time (UTC) | temp C | wind direction | speed KPH | gust KPH | rain 1hr cm | rain 24hr cm | rain mn cm | humidity % | barometer mb |
| 20260507080517 | 10 | 219 | 3.2 | 8.0 | 0.00 | 0.00 | 0.00 | 95 | 1011.3 |
| 20260507075517 | 10 | 243 | 3.2 | 11.3 | 0.00 | 0.00 | 0.00 | 95 | 1011.3 |
| 20260507074518 | 10 | 219 | 1.6 | 8.0 | 0.00 | 0.00 | 0.00 | 95 | 1011.3 |
| 20260507073558 | 10 | 168 | 3.2 | 8.0 | 0.00 | 0.00 | 0.00 | 95 | 1011.4 |
| 20260507072518 | 10 | 228 | 3.2 | 8.0 | 0.00 | 0.00 | 0.00 | 95 | 1011.4 |
| 20260507071518 | 11 | 246 | 3.2 | 9.7 | 0.00 | 0.00 | 0.00 | 95 | 1011.4 |
| 20260507070518 | 11 | 213 | 3.2 | 6.4 | 0.00 | 0.00 | 0.00 | 95 | 1011.4 |
| 20260507065538 | 11 | 223 | 1.6 | 8.0 | 0.00 | 0.00 | 0.00 | 95 | 1011.4 |
| 20260507064516 | 11 | 188 | 1.6 | 4.8 | 0.00 | 0.00 | 0.00 | 94 | 1011.4 |
| 20260507063536 | 11 | 237 | 4.8 | 9.7 | 0.00 | 0.00 | 0.00 | 94 | 1011.4 |
| 20260507062516 | 11 | 202 | 3.2 | 8.0 | 0.00 | 0.00 | 0.00 | 94 | 1011.4 |
| 20260507061517 | 11 | 241 | 1.6 | 6.4 | 0.00 | 0.00 | 0.00 | 93 | 1011.5 |
| 20260507060516 | 11 | 150 | 1.6 | 4.8 | 0.00 | 0.00 | 0.00 | 93 | 1011.6 |
| 20260507055517 | 11 | 163 | 3.2 | 6.4 | 0.00 | 0.00 | 0.00 | 93 | 1011.6 |
| 20260507054536 | 11 | 180 | 1.6 | 6.4 | 0.00 | 0.00 | 0.00 | 92 | 1011.6 |
| 20260507053517 | 11 | 135 | 3.2 | 6.4 | 0.00 | 0.00 | 0.00 | 92 | 1011.6 |
| 20260507052517 | 11 | 139 | 1.6 | 4.8 | 0.00 | 0.00 | 0.00 | 92 | 1011.6 |
| 20260507051517 | 11 | 185 | 1.6 | 4.8 | 0.00 | 0.00 | 0.00 | 91 | 1011.6 |
| 20260507050517 | 11 | 170 | 3.2 | 6.4 | 0.00 | 0.00 | 0.00 | 91 | 1011.6 |
| 20260507045518 | 12 | 173 | 3.2 | 8.0 | 0.00 | 0.00 | 0.00 | 90 | 1011.6 |
| 20260507044517 | 12 | 211 | 3.2 | 6.4 | 0.00 | 0.00 | 0.00 | 90 | 1011.6 |
| 20260507043518 | 12 | 208 | 1.6 | 8.0 | 0.00 | 0.00 | 0.00 | 90 | 1011.6 |
| 20260507042538 | 12 | 223 | 1.6 | 4.8 | 0.00 | 0.00 | 0.00 | 89 | 1011.5 |
| 20260507041517 | 12 | 210 | 1.6 | 6.4 | 0.00 | 0.00 | 0.00 | 89 | 1011.5 |
| 20260507040538 | 12 | 208 | 3.2 | 6.4 | 0.00 | 0.00 | 0.00 | 89 | 1011.5 |
| 20260507035516 | 12 | 221 | 1.6 | 6.4 | 0.00 | 0.00 | 0.00 | 88 | 1011.4 |
| 20260507034516 | 12 | 208 | 3.2 | 8.0 | 0.00 | 0.00 | 0.00 | 88 | 1011.3 |
| 20260507033516 | 12 | 224 | 3.2 | 9.7 | 0.00 | 0.00 | 0.00 | 87 | 1011.3 |
| 20260507032516 | 12 | 208 | 3.2 | 9.7 | 0.00 | 0.00 | 0.00 | 86 | 1011.2 |
| 20260507031516 | 12 | 219 | 3.2 | 6.4 | 0.00 | 0.00 | 0.00 | 86 | 1011.2 |
| 20260507030516 | 13 | 220 | 1.6 | 6.4 | 0.00 | 0.00 | 0.00 | 85 | 1011.2 |
| 20260507025516 | 13 | 189 | 1.6 | 6.4 | 0.00 | 0.00 | 0.00 | 84 | 1011.1 |
| 20260507024518 | 13 | 204 | 1.6 | 6.4 | 0.00 | 0.00 | 0.00 | 83 | 1011.0 |
| 20260507023517 | 13 | 165 | 3.2 | 6.4 | 0.00 | 0.00 | 0.00 | 83 | 1010.9 |
| 20260507022517 | 13 | 220 | 1.6 | 4.8 | 0.00 | 0.00 | 0.00 | 82 | 1010.9 |
| 20260507021517 | 13 | 212 | 3.2 | 9.7 | 0.00 | 0.00 | 0.00 | 82 | 1010.9 |
| 20260507020517 | 13 | 169 | 3.2 | 11.3 | 0.00 | 0.00 | 0.00 | 82 | 1010.9 |
| 20260507015518 | 13 | 198 | 3.2 | 8.0 | 0.00 | 0.00 | 0.00 | 81 | 1010.9 |
| 20260507014518 | 13 | 177 | 3.2 | 8.0 | 0.00 | 0.00 | 0.00 | 81 | 1010.8 |
| 20260507013518 | 13 | 195 | 3.2 | 6.4 | 0.00 | 0.00 | 0.00 | 81 | 1010.9 |
| 20260507012518 | 13 | 167 | 1.6 | 6.4 | 0.00 | 0.00 | 0.00 | 81 | 1010.9 |
| 20260507011518 | 13 | 217 | 3.2 | 6.4 | 0.00 | 0.00 | 0.00 | 81 | 1011.0 |
| 20260507010526 | 13 | 163 | 3.2 | 8.0 | 0.00 | 0.00 | 0.00 | 81 | 1011.0 |
| 20260507005516 | 13 | 195 | 3.2 | 8.0 | 0.00 | 0.00 | 0.00 | 81 | 1011.0 |
| 20260507004516 | 13 | 229 | 3.2 | 8.0 | 0.00 | 0.00 | 0.00 | 81 | 1011.1 |
| 20260507003516 | 13 | 188 | 3.2 | 8.0 | 0.00 | 0.00 | 0.00 | 81 | 1011.1 |
| 20260507002516 | 13 | 197 | 3.2 | 9.7 | 0.00 | 0.00 | 0.00 | 81 | 1011.0 |
| 20260507001516 | 13 | 157 | 4.8 | 12.9 | 0.00 | 0.00 | 0.00 | 81 | 1011.0 |
| 20260507000516 | 13 | 181 | 3.2 | 9.7 | 0.00 | 0.00 | 0.00 | 81 | 1011.0 |
| 20260506235516 | 13 | 222 | 3.2 | 6.4 | 0.00 | 0.00 | 0.00 | 81 | 1011.0 |
| 20260506234517 | 13 | 238 | 3.2 | 8.0 | 0.00 | 0.00 | 0.00 | 81 | 1011.1 |
| 20260506233517 | 13 | 227 | 3.2 | 9.7 | 0.00 | 0.00 | 0.00 | 81 | 1011.1 |
| 20260506232517 | 13 | 219 | 3.2 | 8.0 | 0.00 | 0.00 | 0.00 | 80 | 1011.1 |
| 20260506231517 | 13 | 144 | 3.2 | 6.4 | 0.00 | 0.00 | 0.00 | 80 | 1011.2 |
| 20260506230517 | 13 | 160 | 4.8 | 9.7 | 0.00 | 0.00 | 0.00 | 80 | 1011.2 |
| 20260506225517 | 13 | 147 | 1.6 | 9.7 | 0.00 | 0.00 | 0.00 | 80 | 1011.3 |
| 20260506224518 | 13 | 208 | 3.2 | 9.7 | 0.00 | 0.00 | 0.00 | 80 | 1011.3 |
| 20260506223538 | 13 | 227 | 4.8 | 11.3 | 0.00 | 0.00 | 0.00 | 80 | 1011.3 |
| 20260506222538 | 13 | 228 | 4.8 | 9.7 | 0.00 | 0.00 | 0.00 | 80 | 1011.4 |
| 20260506221518 | 13 | 238 | 6.4 | 11.3 | 0.00 | 0.00 | 0.00 | 80 | 1011.5 |
| 20260506220518 | 13 | 262 | 3.2 | 11.3 | 0.00 | 0.00 | 0.00 | 80 | 1011.6 |
| 20260506215516 | 13 | 185 | 3.2 | 11.3 | 0.00 | 0.00 | 0.00 | 80 | 1011.5 |
| 20260506214556 | 13 | 238 | 3.2 | 6.4 | 0.00 | 0.00 | 0.00 | 80 | 1011.5 |
| 20260506213516 | 13 | 249 | 3.2 | 11.3 | 0.00 | 0.00 | 0.00 | 80 | 1011.4 |
| 20260506212516 | 13 | 182 | 3.2 | 9.7 | 0.00 | 0.00 | 0.00 | 80 | 1011.5 |
| 20260506211516 | 13 | 214 | 6.4 | 12.9 | 0.00 | 0.00 | 0.00 | 79 | 1011.5 |
| 20260506210536 | 13 | 230 | 4.8 | 12.9 | 0.00 | 0.00 | 0.00 | 79 | 1011.5 |
| 20260506205517 | 13 | 209 | 3.2 | 9.7 | 0.00 | 0.00 | 0.00 | 78 | 1011.5 |
| 20260506204516 | 13 | 188 | 4.8 | 11.3 | 0.00 | 0.00 | 0.00 | 78 | 1011.4 |
| 20260506203517 | 13 | 194 | 3.2 | 9.7 | 0.00 | 0.00 | 0.00 | 77 | 1011.4 |
| 20260506202517 | 13 | 209 | 4.8 | 12.9 | 0.00 | 0.00 | 0.00 | 78 | 1011.4 |
| 20260506201517 | 13 | 185 | 4.8 | 9.7 | 0.00 | 0.00 | 0.00 | 79 | 1011.4 |
| 20260506200537 | 13 | 179 | 6.4 | 11.3 | 0.00 | 0.00 | 0.00 | 79 | 1011.3 |
| 20260506195517 | 13 | 237 | 4.8 | 16.1 | 0.00 | 0.00 | 0.00 | 78 | 1011.3 |
| 20260506194537 | 13 | 189 | 6.4 | 14.5 | 0.00 | 0.00 | 0.00 | 78 | 1011.2 |
| 20260506193517 | 13 | 206 | 6.4 | 16.1 | 0.00 | 0.00 | 0.00 | 78 | 1011.1 |
| 20260506192518 | 13 | 221 | 4.8 | 12.9 | 0.00 | 0.00 | 0.00 | 78 | 1011.2 |
| 20260506191518 | 13 | 193 | 4.8 | 11.3 | 0.00 | 0.00 | 0.00 | 78 | 1011.2 |
| 20260506190535 | 12 | 225 | 6.4 | 16.1 | 0.00 | 0.00 | 0.00 | 79 | 1011.2 |
| 20260506185518 | 12 | 197 | 6.4 | 14.5 | 0.00 | 0.00 | 0.00 | 80 | 1011.1 |
| 20260506184515 | 12 | 194 | 8.0 | 14.5 | 0.00 | 0.00 | 0.00 | 80 | 1011.0 |
| 20260506183516 | 13 | 207 | 6.4 | 16.1 | 0.00 | 0.00 | 0.00 | 79 | 1011.2 |
| 20260506182516 | 12 | 233 | 4.8 | 14.5 | 0.00 | 0.00 | 0.00 | 80 | 1011.3 |
| 20260506181516 | 12 | 229 | 4.8 | 9.7 | 0.00 | 0.00 | 0.00 | 82 | 1011.1 |
| 20260506180516 | 11 | 219 | 4.8 | 14.5 | 0.00 | 0.00 | 0.00 | 85 | 1011.0 |
| 20260506175516 | 11 | 257 | 6.4 | 19.3 | 0.00 | 0.00 | 0.00 | 86 | 1010.9 |
| 20260506174536 | 12 | 199 | 6.4 | 20.9 | 0.00 | 0.00 | 0.00 | 85 | 1010.7 |
| 20260506173517 | 12 | 183 | 6.4 | 17.7 | 0.00 | 0.00 | 0.00 | 85 | 1010.7 |
| 20260506172517 | 11 | 222 | 4.8 | 12.9 | 0.00 | 0.00 | 0.00 | 88 | 1010.8 |
| 20260506171517 | 11 | 200 | 6.4 | 16.1 | 0.00 | 0.00 | 0.00 | 89 | 1010.9 |
| 20260506170516 | 11 | 226 | 4.8 | 11.3 | 0.00 | 0.00 | 0.00 | 92 | 1010.7 |
| 20260506165517 | 11 | 264 | 4.8 | 12.9 | 0.00 | 0.00 | 0.00 | 92 | 1010.8 |
| 20260506164537 | 11 | 221 | 4.8 | 11.3 | 0.00 | 0.00 | 0.00 | 91 | 1010.7 |
| 20260506163517 | 12 | 219 | 3.2 | 11.3 | 0.00 | 0.00 | 0.00 | 91 | 1010.6 |
| 20260506162518 | 12 | 176 | 4.8 | 9.7 | 0.00 | 0.00 | 0.00 | 91 | 1010.7 |
| 20260506161518 | 11 | 256 | 3.2 | 9.7 | 0.00 | 0.00 | 0.00 | 91 | 1010.6 |
| 20260506160518 | 11 | 178 | 4.8 | 11.3 | 0.00 | 0.00 | 0.00 | 92 | 1010.3 |
| 20260506155538 | 11 | 180 | 3.2 | 9.7 | 0.00 | 0.00 | 0.00 | 94 | 1010.1 |
| 20260506154515 | 11 | 147 | 4.8 | 9.7 | 0.00 | 0.00 | 0.00 | 94 | 1010.1 |
| 20260506153536 | 11 | 149 | 4.8 | 11.3 | 0.00 | 0.00 | 0.00 | 94 | 1010.3 |
| 20260506152515 | 11 | 196 | 3.2 | 6.4 | 0.00 | 0.00 | 0.00 | 95 | 1010.4 |
| 20260506151516 | 11 | 145 | 4.8 | 11.3 | 0.00 | 0.00 | 0.00 | 97 | 1010.3 |
| 20260506150516 | 10 | 229 | 1.6 | 4.8 | 0.00 | 0.00 | 0.00 | 98 | 1010.4 |
| 20260506145517 | 10 | 139 | 3.2 | 6.4 | 0.00 | 0.00 | 0.00 | 98 | 1010.2 |
| 20260506144517 | 10 | 135 | 6.4 | 12.9 | 0.00 | 0.00 | 0.00 | 97 | 1009.8 |
| 20260506143516 | 10 | 129 | 3.2 | 8.0 | 0.00 | 0.00 | 0.00 | 97 | 1010.1 |
| 20260506142517 | 10 | 132 | 4.8 | 11.3 | 0.00 | 0.00 | 0.00 | 98 | 1010.1 |
| 20260506141517 | 10 | 147 | 4.8 | 9.7 | 0.00 | 0.00 | 0.00 | 98 | 1010.1 |
| 20260506140517 | 10 | 160 | 1.6 | 8.0 | 0.00 | 0.00 | 0.00 | 98 | 1010.0 |
| 20260506135517 | 10 | 159 | 3.2 | 9.7 | 0.00 | 0.00 | 0.00 | 98 | 1009.9 |
| 20260506134517 | 10 | 145 | 3.2 | 6.4 | 0.00 | 0.00 | 0.00 | 98 | 1009.8 |
| 20260506133538 | 10 | 213 | 1.6 | 4.8 | 0.00 | 0.00 | 0.00 | 97 | 1009.9 |
| 20260506132518 | 10 | 140 | 3.2 | 8.0 | 0.00 | 0.00 | 0.00 | 96 | 1009.7 |
| 20260506131518 | 10 | 180 | 1.6 | 4.8 | 0.00 | 0.00 | 0.00 | 96 | 1009.8 |
| 20260506130518 | 10 | 123 | 1.6 | 4.8 | 0.00 | 0.00 | 0.00 | 96 | 1009.6 |
| 20260506125538 | 10 | 254 | 3.2 | 6.4 | 0.00 | 0.00 | 0.00 | 96 | 1009.6 |
| 20260506124515 | 10 | 134 | 4.8 | 11.3 | 0.00 | 0.00 | 0.00 | 95 | 1009.1 |
| 20260506123516 | 11 | 168 | 3.2 | 9.7 | 0.00 | 0.00 | 0.00 | 95 | 1009.4 |
| 20260506122516 | 11 | 185 | 3.2 | 6.4 | 0.00 | 0.00 | 0.00 | 95 | 1009.3 |
| 20260506121516 | 11 | 170 | 3.2 | 9.7 | 0.00 | 0.00 | 0.00 | 94 | 1009.2 |
| 20260506120536 | 11 | 172 | 4.8 | 14.5 | 0.00 | 0.00 | 0.00 | 94 | 1009.1 |
| 20260506115516 | 11 | 159 | 3.2 | 6.4 | 0.00 | 0.00 | 0.00 | 94 | 1009.1 |
| 20260506114557 | 11 | 156 | 1.6 | 4.8 | 0.00 | 0.00 | 0.00 | 94 | 1009.0 |
| 20260506113537 | 11 | 185 | 4.8 | 11.3 | 0.00 | 0.00 | 0.00 | 94 | 1009.0 |
| 20260506112537 | 11 | 207 | 1.6 | 4.8 | 0.00 | 0.00 | 0.00 | 94 | 1008.9 |
| 20260506111517 | 11 | 201 | 3.2 | 11.3 | 0.00 | 0.00 | 0.00 | 94 | 1008.8 |
| 20260506110517 | 11 | 140 | 1.6 | 4.8 | 0.00 | 0.00 | 0.00 | 94 | 1008.8 |
| 20260506105518 | 11 | 231 | 3.2 | 4.8 | 0.00 | 0.00 | 0.00 | 94 | 1008.7 |
| 20260506104538 | 11 | 241 | 3.2 | 11.3 | 0.00 | 0.00 | 0.00 | 94 | 1008.7 |
| 20260506103517 | 11 | 236 | 4.8 | 9.7 | 0.00 | 0.00 | 0.00 | 94 | 1008.6 |
| 20260506102518 | 11 | 211 | 4.8 | 11.3 | 0.00 | 0.00 | 0.00 | 94 | 1008.6 |
| 20260506101538 | 11 | 236 | 4.8 | 9.7 | 0.00 | 0.00 | 0.00 | 94 | 1008.5 |
| 20260506100538 | 11 | 246 | 4.8 | 12.9 | 0.00 | 0.00 | 0.00 | 95 | 1008.5 |
| 20260506095518 | 10 | 201 | 1.6 | 6.4 | 0.00 | 0.00 | 0.00 | 96 | 1008.5 |
| 20260506094538 | 10 | 236 | 4.8 | 11.3 | 0.00 | 0.00 | 0.00 | 96 | 1008.3 |
| 20260506093516 | 10 | 203 | 3.2 | 9.7 | 0.00 | 0.00 | 0.00 | 96 | 1008.2 |
| 20260506092515 | 10 | 168 | 3.2 | 8.0 | 0.00 | 0.00 | 0.00 | 96 | 1008.2 |
| 20260506091517 | 10 | 180 | 3.2 | 8.0 | 0.00 | 0.00 | 0.00 | 95 | 1008.1 |
| 20260506090557 | 10 | 201 | 1.6 | 6.4 | 0.00 | 0.00 | 0.00 | 95 | 1008.0 |
| 20260506085517 | 10 | 233 | 1.6 | 8.0 | 0.00 | 0.00 | 0.00 | 95 | 1007.8 |
| 20260506084517 | 10 | 230 | 3.2 | 9.7 | 0.00 | 0.00 | 0.00 | 95 | 1007.7 |
| 20260506083517 | 11 | 241 | 3.2 | 8.0 | 0.00 | 0.00 | 0.00 | 94 | 1007.6 |
| 20260506082558 | 11 | 216 | 3.2 | 6.4 | 0.00 | 0.00 | 0.00 | 94 | 1007.6 |
| 20260506081538 | 11 | 213 | 1.6 | 4.8 | 0.00 | 0.00 | 0.00 | 93 | 1007.5 |